• Processing (Info)

  • MPEC 2013-N29 : 2013 NP8

    The following Minor Planet Electronic Circular may be linked-to from your own Web pages, but must not otherwise be redistributed electronically.

    A form allowing access to any MPEC is at the bottom of this page.


    Read MPEC 2013-N28 Read MPEC 2013-N30


    M.P.E.C. 2013-N29                                Issued 2013 July 8, 11:30 UT
    
         The Minor Planet Electronic Circulars contain information on unusual
             minor planets and routine data on comets.  They are published
       on behalf of Commission 20 of the International Astronomical Union by the
              Minor Planet Center, Smithsonian Astrophysical Observatory,
                              Cambridge, MA 02138, U.S.A.
    
                 Prepared using the Tamkin Foundation Computer Network
    
                                  MPC@CFA.HARVARD.EDU
                URL https://www.minorplanetcenter.net/    ISSN 1523-6714
    
                                       2013 NP8
    
    Observations:
         K13N08P*QC2013 07 05.60946321 27 41.22 -42 26 35.1          19.7 VqEN029E12
         K13N08P QC2013 07 05.62425921 27 48.18 -42 27 19.5          20.0 VqEN029E12
         K13N08P QC2013 07 05.63922821 27 55.33 -42 28 05.3          19.3 VqEN029E12
         K13N08P QC2013 07 05.65413821 28 02.39 -42 28 50.3          19.7 VqEN029E12
         K13N08P QC2013 07 05.67644121 28 13.01 -42 29 56.3          19.2 VqEN029E12
         K13N08P QC2013 07 05.72979221 28 38.43 -42 32 33.3          19.3 VqEN029E12
         K13N08P QC2013 07 05.82603221 29 24.79 -42 37 06.8          19.5 VqEN029E12
         K13N08P QC2013 07 06.51120 21 35 23.79 -43 10 19.2          19.4 VqEN029E12
         K13N08P QC2013 07 06.51613 21 35 26.33 -43 10 34.3          19.6 VqEN029E12
         K13N08P  C2013 07 06.65680 21 36 37.21 -43 17 36.3          19.5 VoEN029E23
         K13N08P  C2013 07 06.66548 21 36 41.62 -43 18 02.0                oEN029E23
         K13N08P  C2013 07 06.67416 21 36 45.98 -43 18 26.8                oEN029E23
         K13N08P QC2013 07 07.52964 21 44 30.37 -43 58 53.9          19.4 VqEN029E12
         K13N08P QC2013 07 07.53433 21 44 32.89 -43 59 08.2          19.8 VqEN029E12
         K13N08P QC2013 07 07.83111 21 47 10.50 -44 13 05.0          19.3 VqEN029E12
    
    Observer details:
    E12 Siding Spring Survey.  Observer R. H. McNaught.  Measurers A. Boattini,
        E. J. Christensen, A. R. Gibbs, A. D. Grauer, R. E. Hill, R. A. Kowalski,
        S. M. Larson, R. H. McNaught.  0.5-m Uppsala Schmidt + CCD.
    E23 Arcadia.  Observer A. Hidas.  0.35-m Schmidt-Cassegrain + CCD.
    
    Orbital elements:
    2013 NP8                                                 Earth MOID = 0.1263 AU
    Epoch 2013 Apr. 18.0 TT = JDT 2456400.5                 MPC
    M 312.78038              (2000.0)            P               Q
    n   0.38660706     Peri.  251.45718     +0.87223669     +0.46933432
    a   1.8661915      Node    80.35248     -0.37936436     +0.82678505
    e   0.4360443      Incl.    8.02206     -0.30868406     +0.31008349
    P   2.55           H   21.8           G   0.15           U   7
    Residuals in seconds of arc
    130705 E12  0.7+  0.1-    130705 E12  0.1+  0.3-    130706 E23  0.4+  0.1-
    130705 E12  0.3-  0.5+    130705 E12  0.3+  0.1+    130706 E23  0.4+  0.4+
    130705 E12  0.1-  0.1-    130706 E12  0.2-  0.0     130707 E12  0.1+  0.1+
    130705 E12  0.4-  0.3-    130706 E12  0.0   0.1+    130707 E12  0.1+  0.2-
    130705 E12  0.2-  0.2+    130706 E23  0.3-  0.2+    130707 E12  0.2-  0.0
    
    Ephemeris:
    2013 NP8                 a,e,i = 1.87, 0.44, 8                   q = 1.0524
    Date    TT    R. A. (2000) Decl.     Delta      r     Elong.  Phase     V
    2013 06 08    19 23 07.6 -24 30 34   0.3147  1.2933   148.3    24.4    21.0
    ...
    2013 06 23    20 11 10.0 -32 28 48   0.2191  1.2129   151.2    23.8    20.0
    ...
    2013 07 01    20 53 38.4 -38 36 38   0.1819  1.1743   147.6    27.6    19.7
    ...
    2013 07 07    21 39 38.4 -43 33 52   0.1613  1.1479   141.9    33.2    19.5
    2013 07 08    21 48 48.1 -44 20 50   0.1586  1.1438   140.7    34.3    19.5
    2013 07 09    21 58 25.1 -45 06 02   0.1560  1.1397   139.4    35.5    19.5
    ...
    2013 07 15    23 05 05.1 -48 34 54   0.1450  1.1168   130.9    43.5    19.5
    ...
    2013 07 23    00 45 01.1 -48 51 17   0.1414  1.0910   118.8    54.7    19.7
    ...
    2013 08 07    02 57 47.2 -39 09 50   0.1599  1.0596   102.2    69.3    20.4
    
    A. U. Tomatic                (C) Copyright 2013 MPC           M.P.E.C. 2013-N29
    

    Read MPEC 2013-N28 Read MPEC 2013-N30


    MPEC number:

    Enter an MPEC number in one of the following forms:

    • 1997-B01 (the full form)
    • J97B01 (the packed version of the full form)
    • B01 (the abbreviated form)